Jordan, MT

5:47 AM MDT on May 26, 2017 (GMT -0600)
Jordan

Weather History for KJDN - August, 2014

Change the Weather History Date:

Wednesday, August 27, 2014

  Actual Average Record
Temperature  
Mean Temperature 68 °F 66 °F  
Max Temperature 87 °F 83 °F 102 °F (1971)
Min Temperature 49 °F 49 °F 32 °F (1945)
Degree Days  
Heating Degree Days 0 2  
Month to date heating degree days 41 29  
Since 1 June heating degree days 176 179  
Since 1 July heating degree days 46 54  
Cooling Degree Days 3 3  
Month to date cooling degree days 171 151  
Year to date cooling degree days 444 382  
Since 1 June cooling degree days 419 376  
Growing Degree Days 17 (Base 50)    
Moisture  
Dew Point 52 °F    
Average Humidity 62    
Maximum Humidity 96    
Minimum Humidity 27    
Precipitation  
Precipitation 0.00 in 0.02 in 0.46 in (1979)
Month to date precipitation 6.24 1.09  
Year to date precipitation 11.60 9.82  
Snow  
Snow 0.00 in - - ()
Month to date snowfall 0.0  
Since 1 June snowfall 0.0  
Since 1 July snowfall 0.0  
Snow Depth 0.00 in    
Sea Level Pressure  
Sea Level Pressure 29.99 in    
Wind  
Wind Speed 5 mph (West)    
Max Wind Speed 14 mph    
Max Gust Speed 22 mph    
T = Trace of Precipitation, MM = Missing Value Source: NWS Daily Summary

Daily Weather History Graph

Daily Weather History Graph

Search for Another Location

Airport or City:

Trip Planner

Search our weather history database for the weather conditions in past years. The results will help you decide how hot, cold, wet, or windy it might be!

Date:

Astronomy

Aug. 27, 2014 Rise Set
Actual Time 6:20 AM MDT 7:57 PM MDT
Civil Twilight 5:47 AM MDT 8:29 PM MDT
Nautical Twilight 5:08 AM MDT 9:08 PM MDT
Astronomical Twilight 4:25 AM MDT 9:50 PM MDT
Moon 8:30 AM MDT (8/27) 8:38 PM MDT (8/27)
Length of Visible Light 14h 41m
Length of Day
13h 37m
Waxing Crescent, 4% of the Moon is Illuminated
Aug 27
Waxing Crescent
Sep 2
First Quarter
Sep 8
Full
Sep 15
Last Quarter
Sep 24
New

Hourly Weather History & Observations

Time (MDT) Temp. Heat Index Dew Point Humidity Pressure Visibility Wind Dir Wind Speed Gust Speed Precip Events Conditions
12:48 AM 57.9 °F - 50.0 °F 75% 30.08 in - East 3.5 mph - N/A   Unknown
1:48 AM 52.0 °F - 50.0 °F 93% 30.08 in - Calm Calm - N/A   Unknown
2:48 AM 51.1 °F - 48.9 °F 92% 30.07 in - Calm Calm - N/A   Unknown
3:48 AM 50.0 °F - 48.0 °F 93% 30.06 in - Calm Calm - N/A   Unknown
4:48 AM 51.1 °F - 48.9 °F 92% 30.05 in - Calm Calm - N/A   Unknown
5:48 AM 48.9 °F - 46.9 °F 93% 30.04 in - Calm Calm - N/A   Unknown
6:48 AM 51.1 °F - 48.9 °F 92% 30.05 in - Calm Calm - N/A   Unknown
7:48 AM 55.9 °F - 52.0 °F 87% 30.05 in - Calm Calm - N/A   Unknown
8:48 AM 64.0 °F - 52.0 °F 65% 30.04 in - Calm Calm - N/A   Unknown
9:48 AM 72.0 °F - 54.0 °F 53% 30.02 in - Variable 4.6 mph - N/A   Unknown
10:48 AM 78.1 °F - 53.1 °F 42% 30.00 in - SSW 8.1 mph - N/A   Unknown
11:48 AM 81.0 °F 80.5 °F 54.0 °F 39% 29.98 in - WSW 6.9 mph - N/A   Unknown
12:48 PM 82.0 °F 81.2 °F 53.1 °F 37% 29.96 in - SSW 10.4 mph - N/A   Unknown
1:48 PM 84.0 °F 82.6 °F 54.0 °F 35% 29.95 in - West 11.5 mph - N/A   Unknown
2:48 PM 82.9 °F - 52.0 °F 34% 29.95 in - WNW 8.1 mph - N/A   Unknown
3:48 PM 86.0 °F - 51.1 °F 30% 29.93 in - West 11.5 mph - N/A   Unknown
4:48 PM 86.0 °F - 48.0 °F 27% 29.91 in - West 10.4 mph - N/A   Unknown
5:48 PM 84.9 °F - 48.9 °F 29% 29.92 in - WNW 6.9 mph - N/A   Unknown
6:48 PM 82.9 °F - 52.0 °F 34% 29.91 in - WNW 5.8 mph - N/A   Unknown
7:48 PM 73.9 °F - 57.0 °F 55% 29.93 in - NW 8.1 mph - N/A   Unknown
8:48 PM 68.0 °F - 57.9 °F 70% 29.94 in - Calm Calm - N/A   Unknown
9:48 PM 63.0 °F - 55.9 °F 78% 29.94 in - WNW 4.6 mph - N/A   Unknown
10:48 PM 61.0 °F - 57.0 °F 87% 29.93 in - Calm Calm - N/A   Unknown
11:48 PM 57.9 °F - 55.9 °F 93% 29.91 in - WNW 3.5 mph - N/A   Unknown